Location: Casone le Fosse
(44.6547°N, 12.1103°E)
Time: 12:12:54
(UTC+00:00)

CZ-4B R/B - Pass Details

Date: 29 October 2020
Orbit: 808 x 882 km, 99.1° (Epoch: 27 November)

Event Time Altitude Azimuth Distance (km) Brightness Sun altitude
Rises 16:40:27 0° 170° (S) 3,451 6.4 -7.0°
Reaches altitude 10° 16:42:52 10° 173° (S) 2,510 5.7 -7.5°
Maximum altitude 16:48:26 70° 257° (WSW) 915 3.7 -8.4°
Drops below altitude 10° 16:53:56 10° 341° (NNW) 2,482 5.8 -9.4°
Sets 16:56:18 0° 344° (NNW) 3,410 6.4 -9.8°
